Theta_e
311 311 310 310 310 311 311 311 311 311 312 311 311 310 310 310 311 310 311 311 310 310 312 310 310 311 310 312 313 312 312 312 311 311 312 312 312 314 321 321 321 322 322 323 323 324 324 325 326 327 329 327 328 330 328 326 326 327 326 327 328 327 327 327 327 328 328 328 329 330 330 330 330 330 331 331 331 331 332 333 334 336 339 339 340
311 311 309 310 310 311 311 311 311 311 311 310 311 311 310 310 311 311 310 310 310 310 312 310 310 310 310 312 312 313 313 312 311 311 312 312 312 313 318 321 321 322 322 323 324 324 325 325 326 327 327 326 327 328 328 329 330 326 326 325 325 326 328 328 328 327 327 329 329 330 330 329 330 330 330 330 330 331 331 332 334 336 338 339 339
312 312 311 310 310 310 310 311 311 311 311 311 311 312 311 311 311 311 310 311 310 310 310 310 309 309 310 311 312 312 312 312 312 312 311 312 313 313 313 319 320 321 321 322 323 324 325 325 325 327 328 328 327 326 326 328 328 329 328 327 326 327 327 327 327 327 328 328 327 329 328 329 329 329 330 330 330 331 333 333 334 337 337 338 339
312 313 313 310 310 310 310 311 311 311 311 311 311 311 311 311 312 312 311 312 310 310 312 310 309 309 309 310 311 312 312 312 312 312 312 312 312 312 312 314 318 320 320 321 322 323 323 324 325 326 326 326 327 328 328 325 326 327 327 326 327 326 326 326 326 326 327 327 327 328 329 329 329 329 329 329 330 331 332 331 331 334 336 334 335
311 313 316 309 310 310 310 312 310 311 311 311 311 311 311 311 311 313 312 312 311 311 312 311 310 310 310 310 311 311 311 311 312 311 311 312 312 312 312 313 314 317 319 320 321 322 322 323 324 325 327 327 327 328 329 329 327 326 325 327 325 325 326 325 326 326 325 326 326 327 328 329 328 328 329 329 330 330 331 330 330 331 335 335 334
312 311 311 311 310 310 310 310 310 311 311 311 311 311 310 310 311 311 313 311 309 310 311 310 310 310 310 310 310 310 311 311 311 311 311 312 312 312 312 312 313 313 314 319 320 320 321 321 323 324 325 325 326 327 326 325 326 326 325 327 326 325 326 325 325 326 325 325 325 326 329 329 328 328 328 329 330 329 331 329 329 329 332 334 334
312 311 311 311 310 310 311 310 311 312 310 310 311 311 311 310 312 310 310 310 310 311 310 310 310 310 310 311 309 310 311 310 310 311 312 312 312 311 312 313 313 313 315 315 317 318 320 321 322 322 323 324 325 325 327 328 328 325 324 325 327 325 325 326 326 327 326 326 327 327 327 328 328 328 328 329 329 328 330 329 329 329 330 335 335
313 311 312 312 311 310 310 311 312 311 310 310 311 310 310 310 311 311 309 309 310 309 310 309 310 310 311 311 310 312 311 310 310 311 313 312 311 312 312 313 313 314 316 313 314 315 319 320 321 322 322 323 324 325 326 327 326 325 326 325 325 326 326 326 326 326 327 326 326 325 327 327 327 328 328 329 328 327 329 330 330 329 332 335 335
313 312 311 313 312 311 311 311 312 310 309 309 309 311 310 309 310 312 310 308 308 308 309 310 309 310 310 310 310 311 310 310 311 314 312 311 311 312 313 313 314 315 313 313 314 314 316 319 320 320 320 321 322 324 325 326 327 328 325 325 325 324 326 326 326 326 326 326 326 326 327 327 327 327 328 328 328 326 324 326 326 327 329 334 335
312 312 311 315 312 311 311 311 312 310 309 309 309 310 311 309 309 310 311 309 309 308 308 308 309 309 310 309 310 310 310 310 313 315 311 311 311 312 313 313 313 313 313 313 313 313 313 315 318 318 318 320 321 323 324 324 324 325 327 326 326 325 324 324 324 325 326 326 327 328 328 327 327 327 328 328 328 327 325 326 327 327 326 331 335
313 312 311 315 310 311 311 310 311 311 309 309 310 311 312 310 309 310 311 310 310 309 308 308 308 308 308 310 310 309 310 311 313 311 312 311 312 314 312 312 313 313 313 313 313 313 312 313 313 312 312 319 320 321 323 325 325 325 326 325 325 326 326 324 322 324 326 326 327 327 326 327 327 328 327 327 328 327 328 328 328 329 331 333 333
314 312 310 314 310 310 310 310 311 311 310 309 309 309 309 309 309 311 310 309 310 309 309 308 308 308 310 311 309 309 308 313 311 311 313 312 312 313 312 313 312 313 313 313 314 312 312 312 314 311 312 314 318 319 321 323 324 324 325 327 326 324 325 325 323 324 325 325 326 326 327 327 327 328 328 328 328 328 329 330 330 330 332 334 335
317 313 311 312 311 309 310 310 310 312 311 310 309 310 312 310 310 311 310 307 308 309 309 309 307 306 308 308 308 309 313 315 310 310 311 312 312 311 312 312 312 312 312 313 312 312 311 312 312 311 311 311 312 317 319 320 322 325 326 327 326 326 325 325 324 324 325 326 326 326 326 327 327 327 326 327 328 329 330 329 330 331 332 333 334
317 316 313 309 309 310 310 309 309 311 313 311 312 314 310 309 308 309 309 308 307 308 308 308 305 304 303 304 306 308 312 311 310 310 311 312 312 311 312 312 311 311 312 312 312 311 311 311 312 311 311 311 311 312 313 314 317 323 325 325 325 325 325 324 324 324 323 324 324 325 325 325 325 326 325 326 328 329 330 330 331 332 332 333 334
311 317 312 311 309 310 310 309 309 312 310 310 309 309 309 308 308 307 307 308 309 310 308 307 304 306 305 304 301 301 306 308 310 310 310 311 312 311 312 312 311 311 312 312 311 311 311 311 311 311 310 311 311 311 312 315 317 322 323 326 326 325 325 324 324 324 323 323 323 323 324 325 326 325 323 324 327 329 328 330 331 332 332 332 333
311 313 312 310 310 310 310 310 310 311 310 309 308 308 309 309 308 309 307 306 305 306 310 308 306 306 300 301 301 299 298 301 304 308 310 311 311 311 311 311 311 311 311 310 311 311 311 311 310 310 310 311 310 311 311 312 317 320 322 325 325 324 325 324 323 323 322 322 323 324 323 324 324 326 325 324 325 325 327 325 325 326 330 333 334
311 311 317 312 309 310 310 310 310 311 312 311 309 308 308 309 308 308 306 305 305 304 306 309 306 309 306 303 300 299 299 302 304 305 310 309 311 311 311 311 311 311 310 310 312 311 311 310 310 311 310 310 310 310 311 312 313 316 316 323 325 325 324 324 324 323 323 324 324 324 324 325 326 325 323 325 325 325 323 324 325 325 326 331 333
310 311 311 318 312 310 310 310 311 311 313 312 310 309 309 309 309 308 307 308 306 304 304 308 308 308 306 306 306 301 301 303 303 299 307 312 310 311 311 311 311 310 310 310 310 310 312 309 310 310 310 310 310 310 310 311 313 314 316 323 325 325 324 324 324 324 323 325 324 324 325 326 326 325 326 325 326 327 325 326 326 327 329 330 333
310 310 310 312 315 312 311 310 311 310 316 314 311 310 309 309 312 308 308 310 306 304 304 304 305 306 306 305 305 308 307 303 300 302 299 305 309 310 310 311 311 310 309 310 311 310 310 311 310 310 310 310 310 310 310 311 314 315 319 323 322 324 324 324 324 323 324 324 325 325 326 326 325 327 327 325 324 324 327 327 327 328 329 330 331
310 310 310 311 316 313 311 310 310 311 317 313 311 311 310 311 312 308 309 308 306 305 304 303 302 303 306 305 304 305 304 304 305 302 300 300 303 308 310 311 310 310 310 309 310 310 310 310 310 310 310 310 310 310 310 311 313 313 315 321 323 323 324 324 324 325 324 324 324 326 326 327 326 327 327 326 325 325 326 326 328 329 327 327 328
309 309 309 309 314 312 312 309 310 310 316 312 312 312 310 310 309 308 307 307 308 308 304 304 303 303 302 303 303 302 303 304 304 304 301 300 301 302 304 308 310 310 310 311 311 311 311 310 310 310 310 309 310 310 310 310 312 313 315 320 323 322 325 326 325 325 325 325 325 325 326 327 327 327 327 327 327 327 328 328 329 328 327 326 326
308 309 308 309 309 311 311 310 310 312 316 311 311 312 311 310 308 307 308 306 307 307 307 304 304 304 302 301 301 301 301 301 302 302 302 303 299 300 303 303 302 307 310 310 310 311 311 310 310 310 309 309 310 310 310 310 312 313 314 318 322 325 325 327 326 326 326 326 326 326 327 327 328 326 327 326 327 326 326 326 327 326 326 327 326
307 308 307 307 309 313 310 310 312 314 313 310 309 309 309 308 308 307 307 306 306 306 305 305 304 304 303 302 301 300 299 299 299 300 300 300 300 301 303 304 304 304 308 310 310 310 311 311 310 309 309 309 309 310 309 310 313 315 314 316 318 322 324 324 325 326 326 325 326 326 327 327 326 325 327 326 327 327 327 327 326 327 326 327 327
306 307 307 308 310 309 310 309 311 310 311 309 308 308 309 308 308 307 307 307 306 307 304 304 303 303 303 303 303 302 302 301 301 301 300 300 300 301 302 304 305 306 308 309 310 310 310 310 310 309 310 309 309 310 310 310 311 315 312 313 315 318 323 324 323 325 326 326 327 325 326 326 326 326 327 328 327 326 328 327 327 327 327 328 327
306 305 307 307 310 308 309 309 309 310 310 307 307 307 307 308 307 306 306 306 306 305 304 304 303 303 302 303 303 303 302 302 302 301 302 302 301 300 302 304 302 304 307 306 306 310 311 311 310 310 310 309 309 309 310 310 310 313 313 310 313 314 318 323 324 325 326 326 327 327 326 325 326 327 328 328 327 327 328 328 326 324 324 325 328
305 305 306 308 308 308 308 307 307 306 308 307 307 307 307 307 306 306 306 307 306 305 304 304 304 303 303 303 303 303 303 303 302 302 301 301 301 301 301 303 305 304 306 306 307 307 309 312 311 310 310 310 309 309 309 310 310 312 312 310 310 312 314 318 323 324 326 326 326 325 325 326 326 327 328 327 327 328 328 327 326 326 327 327 329
304 306 309 307 307 306 308 304 304 304 305 305 305 305 306 306 307 306 307 307 306 306 304 303 304 303 303 302 303 303 303 303 303 303 303 302 302 302 301 299 302 304 304 305 306 307 307 310 312 310 309 309 309 309 309 309 310 312 311 308 308 310 310 311 316 322 324 326 327 327 328 326 326 327 327 328 327 328 327 326 326 328 328 328 328
305 308 305 306 305 303 304 303 303 303 303 304 304 304 304 306 305 305 305 307 306 305 304 303 303 303 303 303 303 303 303 303 303 303 303 304 303 303 303 302 300 299 303 302 304 305 309 307 311 311 309 309 308 308 310 310 309 311 310 308 307 308 309 308 310 315 321 323 326 326 326 327 328 328 326 325 327 327 326 326 326 326 326 328 327
307 309 304 304 305 304 302 302 301 301 301 302 302 303 304 304 304 304 304 304 307 305 305 303 303 303 303 302 302 302 303 303 303 304 304 304 305 305 304 303 303 301 300 300 302 302 306 309 306 308 310 309 308 309 308 309 310 309 308 308 307 307 308 308 308 310 313 318 323 326 326 327 327 326 325 324 325 326 326 326 327 326 325 326 327
309 308 304 303 301 304 300 300 300 300 300 300 301 302 303 304 304 304 304 304 304 305 305 304 303 303 303 302 302 302 302 302 303 304 305 305 305 305 305 305 305 303 302 300 301 305 305 308 309 307 310 309 309 308 308 308 310 309 308 307 307 307 308 308 307 307 307 308 312 318 324 326 325 326 324 325 325 325 325 324 325 326 326 325 323
307 304 303 301 301 300 299 299 298 298 298 298 299 300 301 302 304 303 304 303 304 303 303 303 303 302 301 300 301 301 302 301 303 304 305 306 306 306 306 306 306 306 303 302 300 305 307 304 308 312 310 309 309 308 308 308 309 309 307 307 307 308 308 307 307 306 305 305 306 308 313 320 323 323 324 325 325 325 324 324 324 323 323 320 319
302 303 301 300 300 298 298 298 297 297 297 297 298 299 300 301 302 303 303 303 303 302 302 302 302 301 300 299 299 300 301 301 302 303 304 305 306 307 307 306 306 306 306 304 302 302 307 306 307 310 312 311 309 307 307 308 309 310 308 307 307 308 306 306 307 306 305 304 303 304 306 311 316 318 318 319 321 320 321 321 321 320 318 317 317
302 302 301 300 299 298 297 298 295 296 296 296 297 297 299 300 302 302 302 302 302 302 302 301 301 301 300 298 298 299 301 301 301 302 303 305 307 307 307 306 305 305 304 303 302 303 306 307 307 308 311 312 308 309 307 307 307 308 309 309 308 307 306 305 305 306 305 304 304 304 303 304 307 310 311 311 310 311 313 313 313 314 315 316 316
302 302 301 301 299 297 297 295 295 294 295 295 295 296 298 299 300 302 302 302 302 301 301 301 301 300 299 298 298 299 301 301 301 301 302 304 305 305 305 305 304 303 304 301 301 301 299 304 305 308 308 312 308 310 307 307 307 309 308 307 308 307 307 306 305 305 306 305 304 304 303 303 303 305 307 306 303 303 304 306 308 311 312 313 313
303 301 300 299 298 297 296 295 294 294 294 294 295 295 296 297 299 300 301 301 301 301 302 301 300 300 299 299 298 299 300 301 301 301 302 302 304 304 304 305 304 303 303 302 301 299 299 300 304 304 305 308 309 308 310 309 309 309 308 307 307 307 307 307 306 306 306 305 305 304 304 303 303 303 303 303 302 302 303 303 303 304 306 306 307
302 302 299 298 297 296 295 294 293 293 293 293 294 294 295 296 297 299 300 300 300 300 300 300 302 300 299 299 299 298 300 301 301 301 301 302 303 304 304 304 304 303 303 302 301 300 299 299 303 303 305 306 308 311 311 310 309 308 307 307 307 306 307 307 306 306 306 306 305 304 304 304 303 303 302 302 302 302 302 302 302 303 303 303 304
301 301 301 299 296 295 295 293 293 292 293 293 293 294 294 295 296 298 299 299 299 299 299 299 302 299 299 298 298 299 299 301 302 301 301 301 303 304 304 304 303 303 303 302 301 302 301 300 302 304 305 306 308 309 310 309 309 308 307 306 306 306 306 307 306 306 306 306 306 305 305 304 304 303 303 302 302 302 302 302 302 302 302 302 302
300 300 299 299 298 295 295 294 293 292 292 292 292 293 293 294 295 297 298 298 298 298 298 298 298 298 297 297 297 298 299 301 301 302 302 302 304 305 304 304 303 303 302 301 301 302 302 302 302 303 305 304 306 307 309 311 308 307 305 306 306 306 306 305 305 306 306 305 305 305 305 305 304 304 304 303 302 302 302 302 302 302 302 302 301
300 299 299 298 299 295 295 294 293 293 292 293 293 293 293 293 294 296 298 298 297 297 297 297 297 297 297 296 296 298 300 302 303 302 302 303 305 306 306 304 304 303 302 301 300 300 300 300 301 302 303 304 305 304 307 311 309 308 305 304 303 305 305 305 304 305 306 305 306 306 306 306 306 305 305 304 303 303 303 303 302 302 302 301 301
300 299 297 297 299 296 296 295 295 296 292 292 294 294 294 293 295 295 296 300 297 297 297 296 296 296 296 296 296 298 301 303 305 304 304 304 305 305 306 305 305 303 302 301 300 299 299 299 299 300 302 302 303 306 307 308 306 306 306 304 301 302 303 305 305 304 305 305 304 304 305 305 305 305 305 304 304 304 304 303 302 302 301 301 300
302 299 298 297 295 293 294 293 292 293 292 292 295 296 295 294 295 295 296 298 297 297 296 295 295 295 295 295 296 300 302 304 306 305 305 307 307 306 307 305 306 303 302 301 300 299 299 299 299 301 300 301 302 302 302 303 304 303 305 305 303 304 304 304 305 306 305 304 303 303 303 303 302 302 302 302 303 303 303 303 302 301 301 300 300
301 299 297 296 294 294 293 292 293 292 291 291 298 296 295 296 296 295 297 299 297 296 296 295 295 295 294 294 296 300 300 302 303 302 302 304 306 309 308 306 305 304 302 301 300 300 299 299 299 299 299 299 300 301 301 303 306 307 306 305 302 304 304 303 304 305 307 305 303 302 302 304 302 301 302 301 302 302 301 301 301 301 300 299 299
300 300 297 295 294 294 294 293 292 293 291 292 296 292 293 294 296 297 297 298 296 296 295 294 294 294 294 294 295 297 297 299 299 299 299 302 302 305 306 306 306 306 303 302 301 301 300 300 300 300 299 299 300 302 301 302 306 306 306 305 304 303 301 300 298 303 308 306 303 301 301 304 303 300 301 301 302 301 301 300 300 300 299 299 299
300 300 296 296 295 295 294 293 291 292 293 296 293 293 293 293 295 298 297 298 297 295 294 293 293 293 293 294 295 295 295 298 297 295 297 300 301 303 304 305 303 299 298 302 302 301 301 300 299 300 300 299 300 301 301 302 302 306 306 305 303 302 301 300 300 299 305 309 303 301 300 304 304 302 301 301 302 302 301 301 300 299 299 299 298
301 299 297 296 295 295 293 291 293 295 292 292 293 292 292 292 293 298 297 297 296 294 293 293 292 292 293 294 294 294 292 296 296 294 295 297 300 303 303 303 305 302 294 292 296 305 303 302 300 300 300 300 301 301 302 302 303 305 305 304 303 303 303 302 302 303 305 310 305 302 300 302 303 301 300 302 302 302 301 301 300 299 299 298 298
301 300 298 297 296 294 293 291 293 292 290 294 292 292 292 292 292 296 296 296 295 294 294 293 293 293 293 293 293 293 293 293 296 295 295 297 297 299 301 302 302 303 302 300 300 301 303 302 301 300 302 302 301 301 303 304 306 306 305 304 305 304 303 302 305 305 307 310 305 303 300 302 303 302 300 301 303 302 301 301 300 300 299 298 298
301 300 298 297 295 295 294 293 291 291 290 294 291 291 292 293 294 296 296 296 295 294 294 293 294 293 293 293 293 293 293 293 297 296 296 297 297 299 300 301 302 302 303 303 303 304 303 302 303 303 302 302 301 301 303 306 309 310 308 307 306 306 306 307 308 308 307 309 308 305 298 301 304 301 300 302 302 302 302 301 300 300 299 299 298
303 301 298 298 297 296 294 293 292 292 290 292 291 291 292 292 296 297 295 295 295 295 295 294 293 293 293 294 294 293 293 293 296 293 295 299 297 299 300 300 302 303 303 304 298 300 303 302 302 302 302 302 299 300 302 307 310 311 311 310 309 308 306 303 301 304 304 308 307 305 301 300 303 301 301 303 303 302 302 302 301 300 300 299 299
302 300 299 298 299 296 294 293 291 291 290 292 291 291 291 293 296 295 295 295 295 295 294 294 293 293 293 297 297 293 293 294 295 291 292 298 297 298 299 300 300 302 302 302 300 298 297 297 296 296 296 297 297 297 297 297 302 308 309 307 304 306 304 301 301 302 302 305 305 306 304 300 303 302 301 302 303 302 302 302 302 300 300 299 299
301 301 300 299 298 296 295 293 292 292 292 293 292 290 292 292 297 294 294 295 294 295 294 293 292 293 293 298 299 296 294 295 292 292 293 298 297 297 298 299 300 300 301 300 302 303 300 298 298 297 297 298 298 299 298 298 299 304 307 303 304 306 304 303 301 302 304 305 304 305 304 301 305 304 302 303 303 303 303 303 304 303 301 300 300
303 302 302 300 298 295 295 295 299 296 293 293 292 289 292 293 297 293 294 294 295 294 292 291 292 292 291 293 297 297 296 295 291 292 293 298 297 297 297 299 299 299 299 298 301 302 303 303 303 304 303 305 305 304 303 300 301 304 304 304 306 306 304 304 303 303 301 302 304 305 304 303 305 304 304 301 298 301 304 303 304 304 304 304 304
Wind_Speed
4 4 3 5 5 5 5 5 5 5 5 5 5 5 6 5 6 6 5 6 6 6 6 7 6 5 4 5 5 5 5 5 5 6 6 5 5 8 16 18 19 22 24 23 22 21 23 24 24 25 26 27 25 23 22 22 22 21 20 19 20 20 22 23 23 22 22 21 21 21 22 21 21 21 21 21 21 21 21 20 20 21 22 19 17
4 4 5 5 5 5 5 5 5 5 5 6 5 5 5 5 6 6 6 6 6 6 5 6 7 5 5 5 5 5 5 5 6 5 5 5 5 6 14 16 18 20 22 22 23 24 24 25 25 26 28 27 25 24 23 21 21 21 19 18 19 20 20 22 22 22 23 22 21 21 21 21 21 21 22 21 21 20 20 21 21 22 22 20 18
4 4 4 4 5 5 5 5 5 5 5 5 5 5 5 5 5 5 6 6 6 5 5 6 6 6 6 6 5 5 5 5 5 5 5 5 5 5 8 15 17 20 21 22 23 24 25 25 25 27 28 28 26 24 23 22 21 20 19 19 19 19 19 21 23 23 22 22 21 21 20 21 21 21 21 21 20 18 16 17 20 19 20 21 19
4 4 4 4 5 5 5 5 5 5 5 5 5 5 5 5 5 5 5 5 5 5 5 5 6 5 6 6 5 5 5 5 5 5 6 6 5 5 5 7 14 17 19 21 24 24 25 27 28 28 28 28 27 26 25 24 23 21 18 18 18 18 20 21 21 22 21 21 21 20 20 21 21 21 20 20 17 17 14 15 17 18 17 20 19
4 4 3 4 4 5 5 5 5 5 5 6 6 5 5 6 7 6 6 6 6 6 5 5 5 7 5 6 5 5 5 5 5 5 5 6 6 6 5 6 7 13 17 20 23 24 25 26 28 28 27 27 27 26 26 25 24 21 18 18 18 17 16 19 20 18 20 21 21 20 20 20 20 20 20 17 15 16 14 13 15 20 17 17 19
4 4 4 4 4 4 4 5 5 6 5 5 6 6 6 6 7 6 6 6 7 7 6 7 6 6 6 6 5 5 5 5 5 5 5 6 6 6 6 6 6 7 8 16 20 23 25 26 26 27 27 27 26 26 24 23 22 21 20 18 16 16 15 15 18 19 20 21 20 20 19 19 20 19 18 17 16 17 15 14 14 19 17 16 18
4 4 4 4 5 5 5 5 5 5 5 5 5 6 6 6 6 8 7 6 6 6 6 6 6 7 6 5 5 5 5 4 5 6 6 6 6 6 6 6 6 7 8 8 14 20 25 26 26 27 28 27 27 27 27 26 23 21 20 18 17 16 16 15 18 19 18 20 22 21 19 19 19 17 16 16 15 16 14 14 16 18 16 14 13
4 4 4 4 4 5 4 5 6 5 5 5 5 6 6 7 5 4 6 8 7 8 6 7 6 7 6 6 6 5 5 5 5 6 5 5 5 6 6 6 6 7 9 8 8 12 24 25 25 26 26 26 26 26 25 25 24 22 19 17 15 14 15 16 16 17 19 19 18 17 16 17 12 12 16 15 14 16 13 11 15 15 12 11 12
4 4 3 4 4 5 5 5 5 5 5 5 5 5 5 6 7 5 4 5 7 8 8 6 7 7 7 7 7 5 5 5 6 5 6 6 7 6 6 7 7 10 7 7 8 9 16 24 24 26 26 26 26 26 26 24 24 22 19 16 17 16 16 15 15 17 17 17 17 15 16 14 14 15 16 14 15 10 5 8 8 13 12 10 11
4 4 4 3 3 4 5 5 5 5 5 5 5 5 4 4 7 7 5 4 6 7 8 7 6 6 7 7 7 5 5 5 5 5 5 6 6 6 7 6 6 7 7 7 8 8 8 16 23 24 25 26 27 26 26 26 23 22 19 16 13 12 15 17 16 16 15 15 15 16 17 16 15 16 18 17 17 15 17 14 13 14 18 14 13
4 4 4 4 5 5 5 5 5 5 5 5 6 7 7 6 6 7 7 5 4 5 6 7 6 6 6 8 6 6 5 4 4 5 5 5 6 6 6 6 6 6 7 8 8 10 9 9 10 11 12 27 27 27 26 26 25 24 23 18 14 10 11 13 14 13 14 15 16 17 17 18 17 18 18 17 17 16 17 17 18 19 20 16 14
2 3 4 4 4 4 5 5 5 5 6 6 6 5 5 7 7 5 7 7 5 5 6 6 7 7 7 5 5 6 6 3 5 7 5 5 5 5 6 7 7 7 7 7 7 9 9 9 10 9 11 17 27 26 27 25 25 25 23 20 18 14 10 9 12 14 13 13 16 16 16 17 19 19 19 20 19 19 20 18 18 19 19 18 17
2 4 4 3 4 4 4 5 5 5 5 5 5 6 4 4 7 5 5 7 5 4 7 6 7 7 5 4 4 5 5 4 5 7 7 5 4 6 7 7 8 7 7 6 8 10 10 10 9 10 11 10 13 23 25 24 24 27 26 21 16 14 10 9 9 11 12 14 14 14 14 15 17 16 17 20 19 20 20 19 19 20 20 18 18
1 2 2 4 4 5 4 4 5 5 4 4 6 6 7 6 5 6 5 4 5 4 6 6 6 6 9 11 8 4 3 2 3 8 7 5 5 7 8 8 9 8 7 7 7 9 10 9 9 10 11 11 11 11 12 14 16 26 25 23 20 12 8 6 7 7 8 9 12 11 12 14 14 16 16 18 19 18 19 19 19 19 19 18 18
4 2 3 3 4 4 4 4 4 4 5 6 6 7 6 6 5 4 6 5 4 4 5 5 4 6 5 4 8 13 6 2 4 11 10 8 7 8 8 8 10 9 7 6 7 8 8 8 10 10 11 11 11 11 12 14 18 25 24 24 20 10 7 4 4 6 5 6 8 9 12 13 14 13 12 15 15 18 17 18 15 17 17 16 18
3 3 2 3 3 4 4 4 5 3 3 5 6 6 6 6 6 4 3 6 5 5 3 5 4 6 7 3 4 2 8 10 13 10 6 8 6 6 8 8 10 11 6 7 8 8 8 8 10 10 12 12 14 12 11 12 20 22 25 24 19 10 7 3 3 3 4 6 9 11 9 11 12 12 14 14 14 14 14 3 8 12 14 14 16
4 4 2 2 2 3 4 4 4 5 3 4 5 5 5 4 4 4 4 2 6 3 4 6 6 3 1 4 4 2 4 8 12 9 3 9 8 8 9 10 11 9 7 7 7 8 8 10 10 9 11 13 15 13 12 13 12 14 17 22 13 9 6 5 1 3 5 8 7 9 11 12 12 11 11 15 12 10 4 10 17 18 19 15 16
3 3 4 3 4 3 3 4 5 5 4 4 4 4 6 6 4 3 4 3 1 4 5 7 5 1 3 1 3 3 7 8 7 8 11 3 7 7 6 9 9 9 7 6 9 11 8 10 9 11 10 14 13 15 13 12 12 12 13 14 13 9 4 4 2 2 3 7 7 8 11 13 11 13 13 13 13 10 16 17 18 19 19 17 15
4 4 4 4 3 4 4 4 4 4 4 4 5 5 5 5 3 3 3 2 2 4 4 4 6 3 4 1 2 3 4 5 5 8 10 9 5 6 9 9 10 9 7 7 7 10 9 8 10 10 11 12 14 13 14 14 18 19 26 30 18 12 6 2 3 2 4 6 9 10 11 12 13 13 12 11 9 10 10 12 16 16 12 11 13
4 4 4 4 3 5 5 5 5 5 4 5 4 4 4 5 4 3 1 2 3 2 3 3 3 5 6 6 6 5 4 3 5 5 8 8 12 11 5 7 10 8 7 7 8 8 10 9 11 11 11 11 13 14 14 14 14 16 17 32 27 19 17 11 6 3 4 6 9 12 11 12 11 11 10 10 9 13 14 17 16 15 10 7 7
3 4 5 4 3 4 4 5 5 5 3 5 5 4 4 5 6 6 5 4 2 2 1 4 3 3 4 4 5 5 6 3 1 5 4 6 8 10 12 13 8 7 7 6 6 7 7 8 8 9 11 11 12 15 13 11 13 14 20 30 30 25 22 19 16 10 6 5 8 10 11 12 12 11 11 10 9 12 15 14 15 16 14 13 9
5 5 5 5 5 5 4 4 4 4 2 4 4 5 6 5 4 3 3 4 3 3 3 3 2 3 2 3 4 5 3 2 2 7 5 5 5 9 8 10 13 9 7 9 9 8 7 9 9 11 11 11 11 13 12 13 13 13 20 32 29 27 21 22 23 17 12 7 9 10 11 10 10 9 9 9 12 12 13 12 11 14 14 17 18
4 5 4 5 5 4 4 4 3 3 3 5 5 4 4 4 3 3 5 5 4 4 4 3 3 4 5 4 4 3 4 4 7 6 5 5 8 8 10 9 10 11 8 9 8 9 7 8 9 11 12 11 11 11 11 12 17 22 28 30 29 29 28 25 25 24 15 5 9 9 9 9 9 9 12 14 14 14 13 10 9 13 17 19 21
4 4 5 6 5 5 4 4 4 5 5 4 3 4 4 3 4 4 4 3 3 3 3 5 6 5 5 4 4 3 3 4 6 6 6 6 6 7 8 10 9 5 6 7 7 9 8 8 8 11 11 11 11 12 12 13 15 29 18 29 31 29 29 28 26 25 20 2 9 7 7 9 12 13 14 15 13 13 15 16 14 14 14 21 21
5 5 5 6 5 5 6 5 5 5 5 4 4 4 4 4 4 4 4 4 3 3 3 4 3 4 5 4 3 4 4 3 4 6 5 5 5 7 7 6 7 9 7 5 6 6 6 6 8 10 10 12 11 11 11 12 12 22 24 18 33 28 28 28 29 30 25 10 12 7 6 9 10 14 12 14 14 13 12 16 16 13 14 21 24
4 5 5 5 3 4 4 4 4 4 4 4 5 5 4 4 4 4 4 3 2 3 4 4 4 5 3 5 5 5 4 4 4 4 6 6 5 6 9 6 5 7 5 5 7 7 7 6 7 8 10 11 11 11 12 12 11 21 24 18 23 32 30 31 33 32 31 25 20 11 9 9 10 12 14 15 16 18 18 19 20 19 18 20 27
4 4 4 4 3 4 4 4 5 5 5 6 5 5 4 3 4 3 3 4 3 4 5 5 5 7 7 5 5 4 5 4 4 4 5 6 5 6 5 9 8 6 10 5 6 9 9 7 5 10 12 11 9 10 11 10 14 23 20 14 14 30 30 31 33 32 32 31 25 25 18 14 12 13 14 15 17 19 21 19 19 23 25 22 25
4 2 3 3 4 5 4 5 4 5 5 5 6 5 5 5 4 4 5 3 4 5 4 4 5 6 5 5 5 5 5 5 5 5 4 5 5 5 5 4 5 8 9 9 10 8 9 9 4 9 11 12 11 10 13 14 13 21 19 12 13 16 27 28 30 31 31 33 27 26 29 29 28 26 21 16 24 22 21 19 20 20 24 26 27
3 1 4 4 4 4 4 5 5 5 5 5 5 5 4 4 4 5 5 5 4 5 4 5 4 5 5 6 4 4 5 5 5 5 5 4 4 4 4 4 4 4 6 8 8 9 8 9 6 6 9 12 11 12 12 11 16 17 13 12 12 13 25 29 32 31 32 31 31 32 29 29 29 25 25 22 19 27 25 25 27 25 25 31 29
1 1 3 4 4 4 4 5 5 5 6 5 5 5 4 4 4 4 3 3 4 4 5 5 5 5 5 6 5 5 6 5 5 6 5 5 5 5 5 5 3 3 4 5 6 6 7 6 6 6 8 11 11 11 12 12 20 16 12 12 12 14 25 30 29 28 27 26 26 29 34 33 31 29 29 28 27 26 31 28 30 26 27 30 27
1 3 4 4 4 4 4 5 5 5 5 6 5 5 5 5 5 4 4 4 4 5 5 5 5 5 6 7 6 5 6 6 6 6 5 5 5 4 4 5 5 4 4 2 5 4 5 7 6 7 7 9 10 10 11 11 15 15 11 12 13 19 22 24 29 28 26 25 28 30 30 31 30 31 32 31 31 29 30 29 27 26 25 26 24
3 3 4 4 4 4 4 4 5 5 5 5 5 5 5 5 4 5 4 4 5 5 5 4 4 6 6 7 6 6 6 6 6 6 6 6 5 5 5 5 6 7 6 4 4 6 4 6 7 7 8 6 10 11 12 12 11 17 11 12 15 17 15 12 26 28 26 26 28 27 28 29 31 30 31 30 29 29 30 29 27 24 21 22 21
3 4 4 4 4 4 4 4 5 5 5 6 5 5 5 5 5 5 4 4 4 4 4 6 6 6 7 6 7 6 6 6 6 5 6 6 5 5 5 5 6 7 8 6 6 6 3 5 4 7 7 6 8 10 11 11 13 12 12 11 14 15 14 13 14 26 27 27 26 26 26 27 27 28 27 28 28 27 26 25 26 25 24 22 19
4 4 4 4 3 4 4 4 4 4 5 5 5 5 5 5 6 4 4 4 4 4 4 6 7 5 5 7 8 8 7 5 6 7 7 7 8 7 7 7 7 8 8 6 5 4 6 5 8 7 6 7 5 8 11 12 11 11 13 12 11 12 13 12 13 15 27 26 27 27 25 25 25 26 27 26 24 23 24 24 24 26 27 27 22
4 4 4 4 4 3 4 4 4 4 5 4 4 5 5 5 5 5 4 4 4 5 5 5 5 5 7 7 7 7 7 7 6 6 6 7 6 6 7 6 6 8 8 8 6 5 6 5 5 6 7 6 4 4 8 8 8 10 12 12 11 10 10 11 11 11 23 24 25 25 25 24 23 23 23 23 23 23 22 21 22 22 23 23 23
5 3 4 4 3 3 3 4 4 4 5 5 4 4 4 4 4 5 5 4 4 5 4 5 5 5 5 6 7 7 8 8 6 6 6 6 5 6 6 6 6 7 8 8 7 5 4 5 6 6 6 6 4 4 4 5 9 10 9 8 9 11 10 10 11 11 16 21 21 22 23 22 22 22 22 22 21 21 21 21 22 22 22 22 22
5 5 3 3 3 3 3 4 4 4 4 4 4 4 4 4 4 4 4 4 5 5 5 4 5 5 5 5 6 6 7 9 8 7 7 8 7 5 6 5 5 5 5 8 8 6 6 7 7 4 5 5 4 3 5 5 7 8 9 11 10 11 12 11 9 10 15 16 17 19 19 20 20 20 20 21 21 21 21 20 20 20 20 20 21
5 4 5 3 3 3 2 2 3 3 3 3 3 3 4 4 4 4 3 4 4 4 5 4 5 5 5 5 6 5 6 8 7 7 6 8 8 6 7 6 6 5 5 7 8 7 6 6 6 6 6 8 6 3 5 6 6 5 7 8 10 11 11 11 10 8 9 9 9 9 13 15 18 21 22 21 21 21 20 20 20 20 20 19 19
6 5 4 4 3 3 2 2 3 3 3 3 3 4 3 3 3 3 4 4 4 4 4 4 5 5 5 5 5 5 5 6 7 7 6 8 6 6 5 5 5 6 6 7 9 8 7 7 6 6 7 6 5 5 5 5 7 5 6 6 9 9 10 10 10 9 8 8 12 17 16 14 17 15 20 21 21 20 21 20 20 20 20 18 19
6 6 6 5 3 3 2 2 1 1 2 3 4 3 3 3 3 3 3 3 3 4 4 4 4 4 5 5 4 5 5 6 6 5 5 6 6 6 5 5 5 6 6 8 11 9 9 8 8 7 6 6 7 6 5 6 5 7 7 6 8 8 9 10 11 10 9 8 8 9 11 12 13 16 18 19 21 20 18 18 21 20 20 19 18
4 5 5 5 5 4 3 1 1 1 1 2 2 3 4 4 3 3 3 3 3 4 5 5 5 5 5 5 5 6 8 10 10 8 7 7 5 6 5 5 5 5 5 8 10 10 9 9 9 8 7 7 7 7 7 6 7 6 5 5 8 8 8 9 11 11 9 8 8 9 10 9 9 10 10 11 12 14 15 16 14 20 19 16 16
5 5 5 5 5 5 4 1 0 1 1 1 2 4 2 2 3 2 2 2 2 3 4 5 6 6 5 5 5 11 11 11 10 11 10 10 10 6 4 4 5 5 5 8 9 10 10 9 8 8 8 8 7 7 5 5 5 4 5 5 6 4 5 9 9 9 9 8 7 10 10 9 8 9 10 11 9 11 9 10 11 12 16 18 17
7 6 6 6 5 4 4 2 1 2 2 1 4 4 3 3 2 2 0 1 2 3 4 4 5 6 6 6 5 7 8 9 9 12 11 10 9 7 7 7 6 4 4 6 8 9 10 8 7 8 7 7 7 6 5 4 4 6 5 5 4 5 6 7 7 6 8 7 9 10 10 9 9 10 10 10 10 10 10 11 17 18 18 17 17
5 5 6 6 5 5 4 3 2 2 2 2 4 5 4 3 2 2 2 1 1 3 3 4 3 4 6 6 5 4 5 8 7 7 9 10 9 9 9 7 7 8 6 5 6 8 8 9 8 7 7 7 6 4 5 5 4 4 6 6 5 6 7 9 7 6 5 6 9 9 9 8 8 9 9 9 9 9 11 15 18 18 17 16 16
6 7 7 6 6 5 4 5 4 3 3 3 2 4 5 4 3 1 3 3 3 3 3 3 4 4 5 5 6 6 5 9 7 6 6 6 8 9 9 8 8 10 8 8 5 6 5 6 7 7 7 6 6 4 5 3 2 5 5 6 5 6 6 8 7 7 7 6 7 9 9 7 7 7 9 8 8 8 8 13 17 17 16 15 16
6 7 6 7 6 6 6 6 4 3 3 2 3 3 4 4 3 3 4 4 4 3 3 3 3 4 4 4 5 7 6 6 5 6 6 5 5 5 5 5 5 7 8 9 8 7 6 4 5 7 8 7 4 3 4 3 2 5 5 6 5 7 7 7 7 8 7 6 5 7 8 7 7 6 9 8 7 8 9 12 15 16 16 17 17
7 7 7 7 7 6 5 4 4 3 3 2 2 2 3 2 4 5 4 4 3 3 2 2 2 3 3 3 4 5 6 6 5 7 6 5 5 4 4 5 5 5 6 6 6 6 6 5 5 6 6 7 5 4 3 2 2 4 4 6 6 7 6 4 6 7 7 8 7 4 7 6 6 8 8 7 7 9 9 12 15 16 17 18 18
5 4 4 4 6 7 6 5 4 4 4 4 2 3 2 2 6 3 4 4 4 3 3 2 3 3 3 3 4 6 5 5 8 10 7 5 3 4 5 5 5 4 5 5 5 6 6 5 5 5 5 7 6 5 6 5 5 6 7 6 5 5 6 7 7 5 8 6 8 7 6 7 6 7 7 7 8 9 9 9 14 17 16 16 17
6 6 7 6 6 6 6 6 6 5 4 2 2 1 1 4 5 4 4 4 3 3 2 2 2 3 3 4 3 4 5 5 8 9 9 5 3 4 4 4 3 4 5 4 6 8 9 10 10 10 10 11 13 15 15 14 8 4 5 6 5 3 6 8 6 6 6 5 6 6 5 7 7 7 8 8 8 9 9 8 9 15 16 16 15
7 7 6 6 5 5 6 7 6 6 5 3 2 1 2 5 5 5 4 4 4 2 1 1 2 2 3 6 5 4 5 5 7 8 8 4 4 4 4 5 6 5 5 5 3 4 7 8 9 9 11 11 12 13 15 14 13 8 3 5 1 2 7 6 8 5 4 5 6 6 4 6 6 5 7 5 8 6 8 8 8 10 13 14 17
8 6 5 6 5 4 5 6 7 7 5 3 4 3 4 7 6 5 4 4 4 2 1 1 2 2 3 3 5 6 4 4 8 8 8 5 4 4 3 3 5 5 5 4 4 5 7 8 9 10 10 10 10 8 10 13 13 12 7 5 3 3 6 6 7 5 5 4 6 7 4 3 3 4 2 4 6 7 7 7 8 7 7 7 9
Wind_Direction
24 7 2 21 4 10 9 5 1 351 349 351 2 349 354 348 346 337 339 340 336 334 334 331 331 325 321 308 312 311 315 310 313 311 304 301 304 313 329 334 336 337 335 333 330 331 331 331 328 326 324 323 319 315 312 309 304 297 290 284 275 268 261 256 251 247 244 242 241 241 241 240 238 238 239 238 236 238 239 238 235 231 220 213 212
22 13 29 7 8 6 10 360 354 350 353 352 344 355 345 341 343 343 342 339 333 326 330 321 323 319 316 317 308 306 299 294 304 303 300 302 305 315 322 325 330 337 338 334 330 333 332 331 331 329 325 324 322 317 313 310 305 302 294 283 273 268 266 261 251 246 243 240 238 238 237 235 234 236 238 239 238 239 243 242 237 232 218 212 208
31 22 26 13 8 7 359 347 358 352 344 342 338 355 339 337 338 334 333 328 325 313 316 318 315 316 320 317 316 311 303 303 297 301 308 314 314 311 310 319 325 331 335 334 334 335 333 332 333 330 329 326 324 320 318 312 306 302 296 287 281 275 264 253 250 243 241 240 238 238 238 237 234 233 236 238 239 237 231 238 235 222 220 209 204
33 25 36 16 9 3 353 359 347 340 344 341 348 350 332 320 326 334 317 319 310 308 317 320 314 312 313 316 317 315 311 307 305 310 308 311 314 309 305 311 321 324 329 331 336 336 336 336 336 332 331 331 329 327 321 317 309 302 298 294 285 276 270 259 251 245 242 241 237 235 236 237 234 232 235 237 237 234 218 219 234 225 210 219 212
15 28 25 28 15 8 359 350 344 336 337 341 344 346 349 353 353 344 340 341 338 342 336 332 323 325 320 317 324 316 317 315 309 311 311 313 319 314 304 314 311 319 324 330 336 337 338 339 335 334 332 330 328 323 319 317 314 309 306 298 288 278 277 266 257 256 249 245 238 233 234 236 234 231 232 231 225 229 213 212 225 231 212 209 219
28 6 20 25 14 11 357 348 340 339 336 351 1 357 354 353 347 350 347 344 340 330 339 337 335 320 325 324 320 314 315 313 315 312 312 319 319 312 315 313 316 316 316 328 331 337 340 339 337 334 333 332 329 320 321 320 318 313 306 296 288 274 264 259 253 243 242 244 248 239 232 233 230 230 229 229 225 225 212 206 222 230 216 203 212
23 24 359 28 12 2 2 342 331 343 346 357 356 352 357 353 350 348 336 338 334 336 339 329 327 326 323 325 322 322 323 317 318 323 324 321 317 315 316 314 319 316 315 323 327 332 340 340 338 337 339 336 332 329 332 326 322 319 314 300 286 280 271 253 236 232 230 232 231 231 228 229 228 224 224 221 221 229 210 207 218 222 214 198 199
12 18 6 12 15 359 345 338 344 346 347 353 7 4 348 346 347 358 346 332 339 336 341 334 329 324 323 323 318 328 316 315 327 321 322 321 316 316 313 314 314 316 326 323 324 325 336 340 340 339 339 337 336 334 331 327 322 326 322 311 295 281 269 255 239 231 232 233 233 238 242 235 216 212 220 214 204 223 224 211 223 236 219 200 188
12 10 9 350 6 359 341 344 344 352 344 347 359 356 353 341 338 350 4 317 323 326 337 341 328 319 318 315 318 322 318 319 314 314 333 331 324 313 312 320 319 324 321 323 326 326 331 338 340 341 340 340 340 338 335 332 329 328 326 316 306 294 277 262 236 227 228 232 230 225 228 213 210 215 222 216 207 188 244 265 267 258 247 216 198
16 4 356 340 18 2 336 350 348 353 346 351 346 338 352 5 343 335 351 339 326 332 335 329 321 316 315 312 310 318 305 315 306 330 335 328 324 317 321 311 317 316 322 324 330 327 323 335 339 340 340 342 343 342 340 336 339 335 328 320 310 298 293 278 251 231 227 227 225 220 216 209 204 211 217 217 210 187 195 205 205 234 249 242 217
11 16 1 356 356 358 355 347 350 351 352 353 357 356 353 351 351 329 338 347 302 314 319 312 310 307 302 298 298 299 296 268 322 320 327 325 327 322 309 320 315 316 325 332 333 337 328 330 330 332 334 342 345 345 344 342 341 341 332 329 317 302 294 294 271 242 231 226 225 224 218 209 204 210 210 208 207 194 197 193 198 212 220 226 225
31 25 29 2 8 4 354 351 358 358 1 0 349 352 340 335 340 331 333 336 341 327 326 329 304 305 297 289 291 292 281 259 339 349 325 329 326 312 321 324 327 321 327 333 329 338 336 336 337 334 336 339 346 348 347 346 342 341 349 340 327 312 287 251 241 241 233 234 232 225 218 210 209 209 205 207 206 201 202 201 202 212 218 216 215
64 45 38 4 360 353 11 359 355 358 354 340 313 322 350 359 342 334 348 339 315 349 337 322 335 334 324 291 273 280 273 274 354 348 337 319 313 324 334 332 328 329 329 327 337 343 346 344 341 337 339 337 338 344 346 347 344 343 351 355 339 318 308 281 257 245 235 229 229 224 217 219 219 215 213 211 209 206 205 206 206 207 211 213 214
25 69 55 36 11 0 2 355 351 343 338 327 346 350 354 8 4 342 343 338 317 330 352 339 12 357 335 337 329 329 266 259 12 338 324 320 312 338 340 337 331 327 326 334 337 345 347 345 341 341 342 341 340 335 336 341 338 346 346 350 347 335 301 295 278 272 254 248 239 226 215 211 220 223 223 215 216 215 211 211 208 207 208 208 211
5 26 56 27 18 8 352 333 352 345 357 348 347 343 344 346 7 4 330 339 321 319 17 33 11 333 286 309 353 342 340 266 304 351 338 337 334 339 337 333 329 330 333 325 337 341 341 341 343 344 346 344 342 340 336 336 340 347 345 344 342 342 329 313 267 234 216 212 240 238 222 212 210 217 229 236 231 223 218 211 210 214 212 207 205
3 2 57 33 28 6 331 357 345 347 336 339 337 336 339 342 351 355 341 347 348 307 11 29 34 343 8 16 312 350 337 348 333 318 304 320 311 327 338 335 332 333 341 338 340 341 342 339 345 348 349 346 351 344 335 336 341 345 340 333 334 355 344 341 272 241 219 209 207 213 240 232 219 208 213 222 243 246 228 179 255 259 240 209 200
345 354 334 21 348 353 353 337 342 348 341 344 332 315 305 316 347 4 359 334 338 333 311 3 9 23 294 350 341 338 342 301 323 302 342 328 335 335 341 341 339 335 338 332 337 346 343 344 347 348 348 351 351 346 340 337 336 340 335 329 344 18 12 354 26 218 220 215 213 213 205 216 224 211 204 213 216 214 243 204 220 220 238 218 198
343 340 342 329 343 337 337 346 353 341 337 333 306 321 344 335 354 337 327 343 247 340 341 335 346 18 57 128 194 281 309 312 324 327 322 244 310 322 331 339 337 334 333 331 344 350 348 349 346 352 350 355 351 351 341 341 339 342 338 358 14 21 28 360 327 179 214 218 200 208 206 201 197 197 212 217 217 195 192 217 205 206 212 210 196
330 336 331 330 325 334 356 354 338 334 324 351 341 339 312 300 331 23 330 330 43 22 341 310 327 353 1 339 290 281 274 298 330 318 325 322 312 338 331 341 333 334 333 341 338 348 348 346 349 350 356 357 356 350 351 345 349 354 354 7 12 4 347 32 3 276 236 228 204 199 202 198 197 188 194 210 218 234 213 206 214 214 200 196 189
336 323 316 331 330 334 349 358 350 338 334 348 326 316 306 316 6 5 292 29 46 41 320 335 49 305 337 342 345 328 320 258 260 319 306 314 321 331 319 349 340 333 336 340 332 346 351 347 350 351 356 359 358 356 353 350 352 357 356 5 16 27 25 10 353 288 248 223 197 204 193 191 190 191 181 190 210 224 221 216 202 190 180 187 184
320 304 323 328 332 329 344 351 348 342 334 334 333 318 318 334 357 355 351 346 13 31 359 353 343 316 327 333 326 347 329 310 262 338 307 314 311 332 329 331 339 333 342 333 329 338 353 346 343 348 357 2 1 359 355 352 357 360 0 7 14 23 30 29 18 353 300 252 213 198 190 185 188 186 176 187 208 206 207 194 173 169 161 154 148
321 322 335 333 342 344 343 324 325 321 330 335 326 342 344 355 359 329 336 359 16 19 30 327 316 315 358 301 350 328 332 322 342 339 314 285 309 312 319 330 331 329 323 347 341 339 348 353 351 356 2 2 2 0 357 356 356 3 5 13 13 17 21 22 24 14 340 259 227 206 195 188 186 176 176 188 205 200 207 184 171 165 151 136 136
326 325 330 329 335 336 327 328 312 315 349 0 354 324 321 339 334 357 27 19 356 13 20 6 8 356 352 5 351 352 344 328 330 336 328 321 324 326 324 328 316 315 332 335 338 343 346 358 356 359 360 3 0 1 1 355 0 8 10 15 16 12 14 17 12 12 6 281 210 203 188 184 158 175 177 192 204 197 176 161 166 157 146 136 145
332 337 337 344 335 337 341 351 349 358 358 350 330 325 331 344 17 20 15 19 0 24 19 13 6 345 348 345 331 320 321 322 322 315 320 316 308 302 312 323 320 315 309 320 331 352 352 3 4 2 359 1 2 359 2 3 2 8 10 16 20 16 13 17 17 16 16 88 176 182 179 152 170 182 184 178 178 182 165 165 181 153 143 141 149
336 342 325 337 335 354 3 5 0 357 348 347 349 349 358 14 21 26 26 23 11 7 27 10 356 1 329 308 318 335 330 308 304 319 318 313 306 302 308 314 312 317 325 342 349 333 348 360 8 8 3 3 2 1 4 4 359 11 13 14 21 18 17 14 18 25 27 80 113 124 142 158 150 158 162 156 148 147 135 134 127 128 149 144 139
307 314 305 323 334 18 22 12 359 352 354 351 0 357 352 19 20 27 19 2 17 30 21 359 4 354 332 340 339 330 322 324 318 323 334 329 323 321 319 319 309 322 319 330 343 353 357 5 16 9 9 8 2 360 7 3 1 12 17 18 17 17 14 17 19 22 34 62 84 105 130 129 135 138 136 133 142 137 140 146 150 153 150 140 126
301 299 330 333 350 30 30 27 6 2 359 5 1 351 349 360 23 11 9 16 24 23 23 10 1 347 344 343 325 330 335 329 332 324 328 329 315 316 325 332 336 341 350 337 351 18 359 338 15 17 13 14 5 2 4 3 12 17 19 19 19 19 18 20 22 20 26 37 59 74 98 117 116 122 123 137 145 131 124 135 138 134 131 127 117
298 327 346 20 25 18 15 19 5 8 5 5 359 351 348 3 15 15 20 3 13 26 9 4 4 346 337 329 339 334 332 332 332 325 316 325 316 319 315 308 329 331 343 352 2 3 4 355 7 21 13 14 14 9 10 10 16 16 20 21 21 18 18 24 24 24 26 26 40 69 71 73 75 79 90 125 127 117 121 122 116 117 124 116 107
315 2 38 23 24 34 16 9 10 6 7 5 357 350 344 2 20 19 19 350 18 17 356 11 348 341 348 345 338 324 337 335 331 335 327 318 327 323 322 310 305 310 341 343 359 358 355 1 360 3 9 15 15 15 16 15 21 20 21 23 21 24 24 29 29 27 27 25 24 47 62 65 69 72 76 72 95 112 107 106 103 101 99 94 92
18 53 70 45 27 26 21 16 6 15 9 358 356 349 346 6 17 28 7 358 26 15 10 353 351 342 348 350 356 345 341 341 336 329 333 328 332 347 341 324 310 315 340 331 335 17 344 354 7 356 4 13 17 19 20 21 25 19 22 23 23 25 29 34 33 30 28 24 27 35 43 49 51 59 66 72 65 73 90 88 87 90 87 88 90
94 93 72 54 37 28 26 16 16 12 6 7 355 351 351 5 17 15 5 10 34 28 4 356 344 351 352 348 349 351 347 339 337 339 340 341 340 336 342 342 1 355 345 307 332 22 16 347 348 3 8 8 16 24 24 23 22 22 19 27 28 29 31 34 35 34 32 29 33 38 40 46 49 47 48 55 61 60 69 75 80 82 84 89 91
121 114 90 72 46 39 22 25 18 15 9 4 359 350 351 13 10 14 359 15 39 27 356 350 349 355 352 347 346 351 344 339 348 347 344 339 337 341 360 1 7 13 357 345 341 339 12 2 344 356 10 8 19 22 25 26 12 19 22 30 34 34 33 30 34 33 33 35 39 40 43 42 47 48 50 53 57 55 56 63 66 66 68 76 82
134 113 93 82 63 51 42 29 27 14 7 4 358 352 358 8 10 15 5 22 43 18 357 1 6 359 352 336 343 354 345 351 346 340 350 341 336 355 2 6 13 16 14 3 348 340 339 7 349 358 4 6 22 19 26 25 28 28 25 30 32 39 40 38 37 34 35 39 40 41 42 43 44 48 48 49 50 54 57 57 61 62 63 65 74
124 114 102 90 70 56 52 36 31 23 13 6 358 356 8 5 11 8 11 15 28 15 11 13 354 359 341 347 350 346 351 341 346 354 353 347 356 0 10 10 11 10 14 10 348 349 346 345 357 356 7 359 29 17 33 28 26 31 35 35 32 37 38 42 40 37 36 41 44 45 44 44 45 48 48 50 50 53 54 55 59 62 63 64 58
108 115 119 103 81 66 62 46 35 28 14 7 359 8 7 8 5 3 4 14 12 5 8 0 352 339 358 354 345 343 349 351 354 348 349 352 349 2 359 3 8 10 12 16 7 10 1 343 348 5 359 342 21 12 28 26 23 28 38 39 36 34 38 40 44 44 39 41 42 46 48 47 46 46 46 47 49 50 52 55 58 59 62 62 60
122 110 106 104 91 73 65 49 43 24 14 7 6 12 5 359 359 355 358 11 14 10 1 346 345 346 351 345 348 345 346 355 352 347 350 344 351 351 350 359 6 8 14 13 19 24 13 6 4 2 340 349 354 9 7 19 31 37 38 36 39 42 35 39 47 46 38 40 42 45 48 50 50 51 53 55 55 54 53 54 57 60 62 63 63
133 129 110 105 101 81 75 63 44 28 9 360 9 3 357 354 348 349 353 11 18 13 3 355 354 347 354 350 334 344 345 357 356 354 345 343 346 344 351 352 1 5 9 19 19 23 20 16 4 352 341 1 359 335 1 15 35 46 46 43 38 45 46 41 40 41 41 37 40 42 46 48 49 51 53 54 54 54 55 55 56 59 62 63 64
141 143 139 131 127 118 101 85 68 33 357 5 12 358 348 346 352 350 351 20 22 13 3 358 353 356 352 347 337 344 344 356 347 344 342 345 348 346 350 348 354 360 15 19 24 22 8 14 15 4 6 13 3 353 350 2 33 39 45 43 46 42 44 47 40 40 43 43 43 39 41 45 44 48 49 52 52 52 53 54 56 57 59 60 61
157 155 147 126 124 127 116 70 53 19 351 350 357 358 348 357 354 349 357 14 22 12 5 355 354 346 348 348 342 339 335 341 347 344 333 344 346 343 341 339 349 357 15 18 22 25 16 10 6 5 7 12 16 7 341 40 53 34 43 41 50 44 46 41 44 40 36 34 43 48 46 46 48 49 50 51 52 53 54 54 56 57 56 56 60
168 165 163 154 139 124 118 87 341 359 0 351 355 355 347 355 356 354 0 1 7 16 5 4 356 351 343 343 342 323 328 337 349 339 332 339 338 347 333 344 352 7 15 19 26 27 25 19 14 360 3 4 12 10 8 24 46 39 31 43 52 49 48 49 48 47 39 41 40 41 32 31 39 44 48 49 48 49 51 56 57 59 58 59 62
168 165 160 157 148 138 110 96 332 331 11 344 301 345 339 345 359 349 346 0 12 18 11 7 5 357 347 342 339 334 352 353 1 357 347 352 348 349 340 347 353 9 19 32 30 29 26 22 13 5 6 14 15 9 18 27 52 52 30 40 57 57 57 56 50 48 45 45 46 49 41 33 40 43 45 49 42 43 45 47 53 57 56 54 58
168 165 162 162 162 158 158 199 274 251 283 260 330 356 360 318 317 310 332 22 20 30 22 7 360 1 346 336 336 352 356 356 1 354 342 357 9 14 339 354 359 10 21 35 34 31 27 21 14 2 7 11 13 9 7 12 48 47 38 29 53 35 62 68 58 39 36 45 48 53 44 33 44 49 46 50 42 45 48 50 54 60 57 57 63
177 178 172 170 175 175 170 165 275 281 304 264 352 332 353 336 313 262 140 39 31 49 43 36 7 346 341 336 327 349 356 359 357 348 339 0 358 354 360 24 38 32 18 34 37 26 22 20 9 6 3 358 3 353 3 353 34 45 54 49 48 44 47 56 57 50 19 39 54 62 53 40 43 53 49 46 44 49 50 52 55 58 61 61 61
193 182 182 191 175 186 170 164 206 252 277 300 344 330 339 338 302 251 173 134 99 64 60 48 12 355 339 337 338 345 353 359 353 340 339 353 349 354 10 22 47 52 45 64 35 21 16 12 11 6 355 356 342 345 358 9 14 42 59 62 50 57 61 63 59 56 20 11 61 64 60 42 40 50 50 42 40 44 51 56 57 59 61 58 62
172 188 198 184 197 191 188 195 219 224 260 282 343 333 331 330 307 215 153 138 117 93 79 56 32 7 351 342 338 346 346 353 355 343 340 343 340 0 17 19 34 50 41 37 38 36 13 6 7 356 0 341 343 350 345 337 319 71 78 74 70 67 67 71 64 56 37 0 60 65 62 41 34 44 54 45 46 43 45 53 58 62 63 64 66
187 202 193 200 197 199 201 206 214 229 251 271 355 331 321 315 282 177 133 127 117 102 89 62 28 2 353 345 344 339 338 344 344 348 349 343 336 354 11 19 30 28 35 47 42 32 32 24 11 5 348 350 334 313 324 319 37 90 91 92 86 83 73 68 59 60 43 21 60 79 68 45 35 46 54 49 49 50 50 52 60 62 67 68 71
191 198 196 200 210 206 208 203 209 233 248 285 321 331 315 330 147 145 126 117 109 94 78 40 7 338 329 330 329 327 325 332 351 353 343 341 336 354 17 30 31 26 36 35 32 38 33 27 17 12 355 359 353 345 317 279 60 76 85 100 99 100 95 76 59 45 48 27 24 52 72 55 38 56 52 52 52 55 55 52 62 67 70 73 73
212 199 204 206 206 206 205 193 200 238 246 252 301 344 332 110 150 130 130 120 111 101 33 0 358 336 320 331 339 338 334 321 354 354 347 339 346 19 25 31 30 35 47 45 49 47 45 30 23 12 11 27 28 37 32 34 75 87 94 93 83 73 81 70 68 44 54 32 28 54 76 68 42 58 57 50 53 56 55 55 61 71 71 73 76
201 202 203 202 203 199 190 192 204 230 251 247 278 301 303 150 139 128 134 112 108 82 358 316 329 330 327 323 7 346 334 349 353 355 350 358 24 36 27 35 37 37 29 4 21 32 31 24 22 19 21 30 35 38 38 37 35 47 112 93 73 59 93 93 77 69 55 29 19 24 70 73 61 68 66 54 52 55 56 58 59 65 67 63 64
206 208 200 206 207 197 192 200 206 209 231 218 202 202 190 168 156 155 152 135 110 62 332 307 337 335 330 353 11 5 352 352 355 7 2 6 38 34 30 31 37 27 6 358 353 27 31 26 22 23 23 34 35 37 40 39 37 31 59 89 54 89 103 108 111 83 62 40 24 351 60 69 76 64 70 65 62 41 56 60 62 64 67 67 65
206 196 186 197 198 200 218 212 213 207 221 212 180 196 172 170 159 151 150 139 132 91 337 308 327 347 341 340 360 12 4 355 20 20 11 18 45 34 21 29 45 36 357 340 16 40 32 33 31 35 34 39 46 44 40 39 41 45 47 51 37 96 117 120 117 112 90 47 3 345 65 41 56 30 57 79 69 56 48 57 57 56 56 61 66